Hourly Data Report for April 12, 2021

OTTAWA INTL A
ONTARIO
Current Station Operator: NAVCAN

45°19'00.000" N
75°40'00.000" W
114.90 m
6106001
71628
YOW

Download Data

Hourly Data (April 2021)
Hourly Data Report for April 12, 2021
TIME
LST
Temp Definition
°C
Dew Point Definition
°C
Rel Hum Definition
%
Precip. Amount Definition
mm

Wind Dir Definition
10's deg

Wind Spd Definition
km/h
Visibility Definition
km
Stn Press Definition
kPa
Hmdx Definition


Wind Chill Definition


Weather Definition


00:00 11.3 -0.1 45   6 23 24.1 99.22     LegendNANA
01:00 10.6 0.2 48   7 26 24.1 99.22     Cloudy
02:00 10.3 0.9 52   6 17 24.1 99.26     LegendNANA
03:00 9.0 3.1 66   8 19 24.1 99.30     Rain Showers
04:00 9.2 2.6 63   8 22 24.1 99.31     Mostly Cloudy
05:00 8.6 2.7 66   6 19 24.1 99.38     LegendNANA
06:00 9.1 2.6 64   8 31 24.1 99.44     LegendNANA
07:00 9.9 3.2 63   7 25 24.1 99.51     Mostly Cloudy
08:00 12.0 3.6 56   9 32 24.1 99.56     LegendNANA
09:00 13.7 4.0 52   8 31 24.1 99.61     LegendNANA
10:00 15.1 4.1 48   8 34 24.1 99.62     Mostly Cloudy
11:00 16.2 4.9 47   8 30 24.1 99.62     LegendNANA
12:00 16.8 5.6 47   9 28 24.1 99.63     LegendNANA
13:00 16.1 5.9 50   6 29 24.1 99.64     Mostly Cloudy
14:00 17.6 7.2 50   7 21 24.1 99.62     LegendNANA
15:00 17.1 7.1 51   6 33 24.1 99.64     LegendNANA
16:00 17.6 7.1 50   6 33 24.1 99.66     Mostly Cloudy
17:00 17.0 6.8 51   7 33 24.1 99.73     LegendNANA
18:00 15.4 6.3 54   6 28 24.1 99.81     LegendNANA
19:00 14.2 5.8 57   6 25 24.1 99.93     Mostly Cloudy
20:00 13.5 5.7 59   7 19 24.1 100.03     LegendNANA
21:00 12.8 5.5 61   7 23 24.1 100.07     LegendNANA
22:00 12.0 5.3 63   6 22 24.1 100.10     Mostly Cloudy
23:00 11.4 5.1 65   6 18 24.1 100.12     LegendNANA

Notes on Data Quality.

Legend

  • E = Estimated
  • M = Missing
  • NA = Not Available*
  • [empty] = Indicates an unobserved value
Date modified: